Regional Weather Roundup
Issued by NWS

Home | Current Version | Previous Version | Text Only | Print | Product List | Glossary On
Versions: 1 2 3 4 5 6 7 8 9 10 11 12 13 14 15 16 17 18 19 20 21 22 23 24 25 26 27 28 29 30 31 32 33 34 35 36 37 38 39 40 41 42 43 44 45 46 47 48 49 50
000
ASHW40 PHFO 010630
RWRHI

WEATHER ROUNDUP FOR HAWAII
NATIONAL WEATHER SERVICE HONOLULU HI
800 PM HST MON AUG 31 2015

THIS IS AN AUTOMATED REPORT THAT HAS NOT BEEN QUALITY CONTROLLED.

NOTE..."FAIR" INDICATES FEW OR NO CLOUDS BELOW 12,000 FEET WITH NO
SIGNIFICANT WEATHER AND/OR OBSTRUCTIONS TO VISIBILITY.

* - THESE SITES REPORT LIMITED FIELDS

HIZ001>004-010700-
KAUAI-NIIHAU-

CITY           SKY/WX    TMP DP  RH WIND       PRES   REMARKS
LIHUE APT      MOCLDY    81  79  94 NE12      29.92R
PORT ALLEN*    NOT AVBL
POIPU*           N/A     81 N/A N/A N6G15       N/A
PRINCEVILLE*     N/A     79 N/A N/A MISG        N/A
KOKOLE POINT*  NOT AVBL
MOLOAA DAIRY*    N/A     79  75  89 CALM        N/A
WAIMEA HTS*    NOT AVBL
PUU OPAE*      NOT AVBL
PUU LUA*       NOT AVBL
MAKAHA RIDGE*    N/A     73  72  94 CALM        N/A
$$

HIZ005>011-010700-
OAHU-

CITY           SKY/WX    TMP DP  RH WIND       PRES   REMARKS
HONOLULU       MOCLDY    83  74  74 NE6       29.87R
KALAELOA       PTCLDY    81  73  76 CALM      29.89R
KANEOHE MCB    PTCLDY    81  76  84 NE8       29.86R
WHEELER FIELD  FAIR      78  74  87 N8        29.89R
BELLOWS*         N/A    N/A N/A N/A N8G14       N/A
KAHUKU*          N/A    N/A N/A N/A NE3         N/A
WHEELER*       NOT AVBL
WAIANAE HARBOR NOT AVBL
DILLINGHAM*      N/A     82  75  78 MISG        N/A
KAHUKU TRN*      N/A     79  75  89 E7G13       N/A
KAWAILOA*        N/A     75  72  88 E7G16       N/A
KII*             N/A     82  77  83 NE10        N/A  HX  91
MAKUA RANGE*     N/A     82  73  74 E9G18       N/A
OAHU FOREST NW NOT AVBL
SCHOFIELD BRK*   N/A     79  75  89 MISG        N/A
SCHOFIELD S*   NOT AVBL
WAIANAE VLY*   NOT AVBL
KUAOKALA*      NOT AVBL
HONOULIUULI*   NOT AVBL
MOKUOLOE IS*   NOT AVBL
PALEHUA*       NOT AVBL
WAIAWA PHB*    NOT AVBL
$$

HIZ012>013-010700-
MOLOKAI-

CITY           SKY/WX    TMP DP  RH WIND       PRES   REMARKS
MOLOKAI AIRPT  CLOUDY    80  75  84 N8        29.89R
KALAUPAPA      NOT AVBL
MAKAPULAPAI*   NOT AVBL
MOLOKAI 1*     NOT AVBL
PUU ALII*        N/A     65  65 100 CALM        N/A
$$

HIZ016-010700-
KAHOOLAWE-

CITY           SKY/WX    TMP DP  RH WIND       PRES   REMARKS
KAHOOLAWE*     NOT AVBL
HAKIOAWA*        N/A     77  76  98 MISG      30.29R
HONOKANAIA*      N/A     82  74  77 N9G21     29.77R
KANELOA*         N/A     79  75  89 N15G26    29.89
KEALIALALO*      N/A     77  73  88 NE14G26   29.87R
LUA MAKIKA*    NOT AVBL
$$

HIZ014>015-010700-
LANAI-

CITY           SKY/WX    TMP DP  RH WIND       PRES   REMARKS
LANAI CITY     FAIR      76  72  87 NE21      29.91R
LANAI 1*       NOT AVBL
$$

HIZ017>028-010700-
MAUI-

CITY           SKY/WX    TMP DP  RH WIND       PRES   REMARKS
KAHULUI        MOCLDY    82  75  79 N15       29.87R
KAPALUA-W MAUI NOT AVBL
HANA AIRPORT   PTCLDY    77  75  94 W5        29.89R
HANA*            N/A     81 N/A N/A NW8G15      N/A
HALEAKALA SUMM   N/A     48  46  93 N17         N/A
MAALAEA BAY*   NOT AVBL
HALEAKALA*     NOT AVBL
KAUPO GAP*     NOT AVBL
KULA 1*          N/A     60  52  74 E3          N/A
$$

HIZ023>026-010700-
BIG ISLAND OF HAWAII COAST AND LOWER SLOPES-

CITY           SKY/WX    TMP DP  RH WIND       PRES   REMARKS
KAILUA KONA    PTCLDY    85  77  77 SE5       29.81S HX  95
HILO           PTCLDY    82  76  81 NW6       29.83R
HONOKAA*       NOT AVBL
KAWAIHAE MWT*    N/A     88 N/A N/A SE7         N/A
KAWAIHAE*        N/A     88 N/A N/A E3          N/A
SOUTH POINT*     N/A     77 N/A N/A W3          N/A
UPOLU AIRPORT*   N/A    N/A N/A N/A NE12        N/A
KAMUELA*       NOT AVBL
HAKALAU*         N/A     57  56  97 SW3         N/A
KALOKO-HONOKO*   N/A     81  75  83 E3        29.82R
PALI 2*          N/A     72  72 100 CALM        N/A
KEALAKOMO*     NOT AVBL
KAUPULEHU*     NOT AVBL
KAPAPALA*        N/A     72  71  98 NW3         N/A
LOWER KAHUKU*    N/A     72 N/A N/A W1          N/A
PUHE CS*         N/A     86  72  62 SE5G14      N/A  HX  92
PUHO CS*         N/A     79  72  78 E2          N/A
PTA KEAMUKU*     N/A     68  63  83 CALM        N/A
WAIKOLOA*      NOT AVBL
$$

HIZ027>028-010700-
BIG ISLAND OF HAWAII INTERIOR AND SUMMMITS-

CITY           SKY/WX    TMP DP  RH WIND       PRES   REMARKS
BRADSHAW FIELD CLOUDY    61  61 100 SW5       30.25R
MK VISITOR CEN   N/A     50  48  93 N3          N/A
MAUNA KEA*       N/A     36  36 100 N28G39      N/A  WCI  23
MAUNA LOA*       N/A     46  39  76 MISG        N/A
MAUNA LOA 1*   NOT AVBL
PTA KIPUKA*      N/A     61  59  94 E3          N/A
PTA RANGE 17*    N/A    N/A N/A N/A W5G12       N/A
PTA WEST*        N/A     66  64  94 S6          N/A
NENE CABIN*      N/A     57  57 100 SE1         N/A
AHUMOA*        NOT AVBL
PTA PORTABLE*  NOT AVBL
PUU MALI*        N/A     59  52  77 SW6G12      N/A
$$

HIC003-010700-
NORTHWEST ISLANDS-

CITY           SKY/WX    TMP DP  RH WIND       PRES   REMARKS
MIDWAY ISLAND  PTCLDY    84  77  79 SE7       29.95R HAZE    HX  94
MIDWAY NOS*    NOT AVBL
FRENCH FRIGATE NOT AVBL
$$

PHZ110>124-180-010700-
BUOY REPORTS

STATION/POSITION TIME  TEMP    WIND        PRES    WAVE   SWELL
                       AIR SEA DIR/SP/G            HT/PER HT/DIR
                 (UTC) (F)     (DEG/KT/KT) (MB)    (FT/S) (FT/D)
BUOY 51001       0559   81 83   60/ 16/ 19 1014.8
BUOY 51101       0600   82 82   80/ 16/ 19 1013.9R   8/ 8   7/ 60
BUOY 51100       NOT AVBL
BUOY 51002       0600   83 85  270/  2/  4 1011.2R   6/11   7/150
BUOY 51003       0600   83 85   50/  6/  8 1011.6R   7/11   7/190
BUOY 51004       0507   82 83  300/  8/ 10 1010.6    8/11   8/360
BARBERS PT BUOY  NOT AVBL
WAIMEA BAY BUOY  0600      82                N/A     5/ 8   2/ 30
KAILUA BAY BUOY  0600      83                N/A     8/13   5/ 90
LANAI BUOY       NOT AVBL
BARBERS PT 2     0600      84                N/A     3/13   2/210
PAUWELA MAUI     0600      82                N/A    13/13  10/ 90
HILO             NOT AVBL
KANEOHE BAY BUOY 0600      82                N/A     7/13   3/ 80
HANALEI KAUAI    0600      82                N/A     7/13   3/ 90
KAHULUI HARBOR   0600   82 85   10/ 13/ 16 1011.1R
HONOLULU HARBOR  0600   83 83   50/  5/ 10 1011.8R
KILO NALU        NOT AVBL
HILO HARBOR      0600   82 83  340/  5/  7 1009.9R
MOKUOLOE         0600   82 86   40/  8/ 11 1012.1R
NAWILIWILI       0600   81 85   20/  7/  9 1012.7R
WHOTS BUOY       NOT AVBL
BUOY 51028       NOT AVBL
$$

......................KEY........................................
  SKY/WX - SKY CONDITIONS/PRESENT WEATHER
  TMP    - TEMPERATURE IN FAHRENHEIT
  DWPT   - DEWPOINT IN FAHRENHEIT
  RH     - RELATIVE HUMIDITY IN PERCENT
  WIND   - DIRECTION AND SPEED /MPH FOR ISLANDS...KTS FOR BUOYS/
  PRES   - MEAN SEA LEVEL PRESSURE IN INCHES OF HG
  VSB    - VISIBILITY IN MILES
  HX     - HEAT INDEX
  WCI    - WIND CHILL INDEX
  VRB    - VARIABLE WIND DIRECTION
  N/A    - NOT AVAILABLE



USA.gov is the U.S. government's official web portal to all federal, state and local government web resources and services.